Theta_e
318 317 317 317 316 315 314 314 314 313 313 313 312 311 310 309 309 308 309 310 311 312 313 313 313 314 315 315 316 316 317 319 319 319 320 320 321 321 322 324 326 327 327 328 328 328 326 326 327 328 328 328 329 329 329 329 329 329 328 328 328 328 327 326 327 327 327 327 328 328 328 328 328 328 328 328 328 327 328 328 329 328 328 328 328
316 316 315 315 314 314 313 313 312 312 312 311 310 309 308 307 307 307 307 308 308 308 308 309 310 311 311 312 313 314 315 315 316 316 316 317 318 319 320 321 322 324 325 326 327 327 326 325 326 328 328 328 328 329 329 329 329 329 329 328 327 327 327 327 326 326 326 327 327 328 328 328 328 328 327 328 328 328 328 328 328 328 328 328 328
315 315 314 314 313 312 312 312 311 311 310 309 308 308 307 307 307 307 307 307 307 307 307 306 307 308 308 309 310 311 312 313 313 313 313 313 313 315 317 319 320 321 322 323 324 325 325 326 326 327 328 327 328 329 329 329 329 329 329 328 327 327 327 327 326 325 326 326 326 327 328 328 328 328 328 328 328 328 328 328 327 328 328 328 329
314 314 313 312 312 311 311 310 310 310 309 309 308 308 308 308 307 307 308 308 308 307 307 307 308 308 309 309 309 310 310 310 310 311 311 311 311 311 314 316 317 319 320 320 322 323 324 325 326 327 327 328 329 328 328 329 329 329 328 328 328 327 327 327 326 326 325 325 326 326 327 328 328 328 328 327 327 327 327 327 327 327 328 328 328
313 313 312 311 310 310 310 309 309 309 309 308 308 308 308 307 307 307 307 308 309 308 309 309 309 309 309 308 308 310 310 310 310 310 309 309 309 308 310 312 315 316 317 318 319 320 322 324 325 327 327 328 328 327 327 328 328 329 329 328 328 327 327 327 326 326 326 326 325 326 326 327 328 328 328 328 327 327 326 327 327 326 327 328 328
312 311 311 310 309 309 309 309 308 308 308 308 307 307 307 307 307 306 306 307 308 308 309 308 307 308 308 308 307 308 309 309 308 307 307 307 308 309 309 310 312 314 315 316 318 320 321 323 325 326 326 327 327 327 328 328 328 328 328 328 328 327 327 327 326 326 326 326 326 325 326 327 327 327 327 327 327 326 325 325 326 326 326 326 326
311 310 309 309 308 308 308 308 308 308 308 307 307 306 305 305 306 305 305 306 307 306 307 308 307 307 307 307 307 307 308 308 306 306 307 309 311 312 312 311 311 313 314 316 318 320 321 322 324 325 325 326 327 327 327 328 328 328 328 328 328 327 327 326 326 326 326 325 325 325 325 326 326 326 327 327 327 325 324 323 323 323 325 326 325
309 308 308 308 307 307 307 307 307 307 307 307 307 306 305 304 304 304 305 306 306 305 305 306 307 307 307 306 306 307 307 306 305 306 309 312 314 315 314 312 311 312 315 317 318 320 321 322 324 325 326 326 326 326 327 327 327 327 327 328 328 327 326 326 325 325 325 325 325 325 325 325 326 326 326 326 325 324 323 323 323 322 322 324 324
308 307 307 306 306 306 307 307 307 307 307 307 306 305 304 303 303 304 305 306 305 304 303 304 305 305 306 306 306 306 306 304 304 307 308 311 314 315 313 311 310 312 314 316 319 320 321 323 324 325 325 325 325 325 325 326 326 327 327 327 327 327 326 325 325 325 325 325 325 325 325 325 324 325 325 324 323 323 323 322 323 322 322 322 322
306 305 305 304 305 306 306 307 307 306 306 305 305 304 304 302 302 303 304 304 304 303 303 303 303 302 304 305 305 305 304 303 306 309 309 310 312 312 311 310 310 310 311 313 317 319 321 322 324 324 324 324 325 325 325 325 325 326 326 326 327 326 325 325 325 325 325 325 325 325 325 324 324 324 324 324 324 323 322 322 322 321 321 320 319
305 304 303 303 304 305 305 306 306 305 305 304 304 304 303 302 302 303 303 302 302 302 302 302 301 301 302 302 303 304 304 304 307 310 310 310 310 309 309 308 309 309 310 312 314 317 319 321 322 323 323 323 323 324 324 324 325 325 325 326 326 326 326 325 325 325 325 325 325 325 325 324 324 324 324 324 324 323 322 322 321 321 320 319 318
304 303 302 303 303 304 304 304 304 304 304 304 303 303 302 302 301 302 301 301 301 301 301 300 300 301 301 300 301 302 303 305 308 309 309 310 309 308 307 307 307 307 309 311 312 314 317 318 319 320 320 320 321 322 323 324 324 324 324 324 325 325 325 325 325 325 325 325 325 325 325 325 324 323 324 324 323 323 322 321 321 320 319 319 318
304 303 302 302 302 303 303 303 303 303 303 303 303 302 302 301 301 301 301 300 300 300 300 300 300 300 300 300 300 300 302 304 307 308 309 309 309 307 306 305 305 306 307 308 310 312 314 315 316 316 317 318 319 320 321 321 322 323 323 323 323 323 324 324 324 325 325 325 325 325 324 325 324 323 323 324 324 322 321 321 320 320 319 319 318
304 303 302 301 301 302 302 302 302 302 302 302 302 302 301 301 300 300 300 300 299 299 299 299 299 299 299 299 299 299 301 304 306 308 308 308 308 307 305 304 304 305 305 306 308 310 311 311 312 313 314 316 316 317 318 318 319 319 320 320 319 320 320 320 321 323 324 324 324 325 325 324 325 324 324 324 323 322 322 321 320 320 319 318 317
303 303 302 301 300 301 301 302 302 302 302 302 302 302 301 301 300 300 299 299 299 299 298 298 298 298 298 298 299 299 300 303 307 307 307 307 306 305 305 304 304 305 305 305 306 307 308 309 310 311 312 313 313 314 315 315 315 315 315 315 315 315 316 316 316 317 320 321 322 323 324 324 325 325 324 323 323 323 323 322 320 320 318 317 316
302 302 301 300 300 300 301 301 301 301 301 302 301 301 301 300 299 299 299 299 299 298 298 298 298 298 298 298 298 299 300 303 306 307 307 306 304 303 303 303 303 303 303 304 304 305 306 307 309 309 310 310 311 312 313 313 313 312 312 312 312 313 312 312 313 314 316 318 319 320 322 323 324 324 324 324 323 322 322 320 319 318 317 316 316
301 300 300 299 299 299 300 301 301 301 301 301 301 301 301 300 299 299 299 299 298 298 298 298 297 298 298 298 298 298 298 300 303 305 307 306 303 301 301 301 301 302 302 302 303 303 304 305 306 307 307 308 309 310 311 311 310 309 309 309 309 309 309 309 311 312 313 314 316 318 319 321 323 324 324 324 322 321 321 319 318 316 316 316 315
299 299 298 298 298 299 300 301 301 301 301 301 300 300 300 299 299 299 299 298 298 298 298 297 297 297 297 297 297 297 298 299 300 302 304 305 303 300 299 299 299 300 300 300 300 301 302 303 304 304 305 306 307 308 308 308 307 306 306 306 305 305 305 307 309 310 311 312 313 315 316 318 320 322 323 323 322 321 321 319 317 316 315 315 315
298 298 297 298 299 299 300 301 301 301 301 300 300 299 299 299 299 299 299 298 298 298 298 297 297 297 297 297 297 297 297 298 299 300 301 302 301 299 299 299 298 298 298 299 299 299 300 301 301 302 303 304 304 305 306 306 305 304 304 303 303 302 302 305 306 306 307 308 308 310 312 313 315 317 319 320 321 321 321 320 318 317 315 314 314
297 297 298 298 299 300 300 301 300 300 300 299 299 299 299 299 299 299 299 299 298 298 298 297 297 296 296 296 296 296 297 297 298 299 299 300 300 299 299 298 298 298 298 298 298 298 298 299 300 300 301 301 302 302 303 304 303 302 302 301 301 301 302 303 304 304 304 304 303 305 306 307 309 311 312 314 315 317 318 319 318 317 315 313 313
296 297 298 298 299 300 300 300 300 299 299 299 299 299 299 299 299 299 298 298 298 298 297 297 297 296 296 296 295 295 296 296 297 299 299 299 299 299 298 298 297 298 298 297 297 297 298 298 299 300 300 300 300 300 300 301 301 300 300 300 300 300 301 301 302 303 303 303 302 302 302 303 304 305 307 309 311 313 315 316 317 316 315 313 313
295 296 297 298 299 299 299 299 299 299 299 299 299 299 299 299 299 299 298 298 298 298 297 297 297 296 296 295 295 295 295 295 296 297 298 299 299 298 298 297 297 298 298 297 297 297 298 298 298 299 300 301 301 301 300 301 300 300 299 299 299 300 300 299 300 300 300 300 300 300 300 300 301 301 302 303 306 309 312 314 315 315 314 313 312
294 295 295 297 298 299 299 299 299 299 299 299 299 299 299 299 299 298 298 298 298 298 297 297 296 296 296 295 295 295 295 295 295 296 297 298 298 299 298 298 298 298 297 297 297 297 298 298 298 299 300 300 301 301 301 301 301 300 300 300 300 300 300 299 299 299 299 298 298 298 298 298 299 299 299 300 301 304 307 310 312 313 312 311 311
295 295 295 295 296 297 298 298 298 298 299 299 299 299 298 298 298 298 298 298 298 297 297 297 296 296 296 296 296 295 295 295 295 295 295 296 297 298 298 298 298 298 297 296 296 297 297 298 299 299 300 300 300 300 300 299 299 299 300 300 300 300 300 299 298 298 298 298 298 298 297 298 298 298 299 299 300 301 303 305 307 309 310 310 310
296 296 295 295 296 296 297 297 298 298 298 299 298 298 298 298 298 298 298 298 298 298 297 297 297 296 296 296 296 296 295 295 295 296 295 295 296 296 296 297 297 297 296 296 296 297 297 298 298 299 299 299 299 299 299 298 298 299 299 299 298 298 298 298 298 298 297 297 297 297 297 298 298 298 298 300 301 301 301 301 303 304 307 307 307
296 296 296 295 295 296 296 296 297 297 297 297 297 297 297 297 296 297 297 297 298 298 298 297 297 297 296 296 296 296 296 295 296 296 296 296 296 295 295 296 296 296 296 296 296 297 297 297 298 298 298 298 298 298 297 297 298 298 298 297 297 297 297 297 297 297 296 296 296 296 296 298 299 299 299 299 300 299 299 300 300 300 302 303 303
296 296 296 296 295 295 295 295 296 296 296 295 295 295 295 295 296 296 296 297 297 297 298 298 298 297 297 297 296 296 296 296 295 296 296 296 295 295 295 295 295 295 295 295 295 296 296 296 296 297 297 297 297 298 297 297 298 297 297 297 297 297 297 297 296 296 296 296 296 296 296 298 299 299 300 299 298 298 298 299 298 298 299 300 300
297 297 297 297 296 295 295 295 295 295 295 295 295 295 295 295 296 295 296 296 296 297 297 298 298 298 297 297 297 296 296 296 296 296 296 295 295 295 295 295 295 295 295 295 295 295 295 296 296 296 296 297 297 297 297 297 297 297 297 298 297 297 297 297 297 296 296 296 296 295 296 296 296 297 297 298 298 298 299 299 298 297 297 298 297
298 297 297 297 297 296 295 295 295 296 296 296 296 296 295 295 295 295 296 296 296 296 297 297 298 298 298 297 297 297 296 296 296 296 296 295 295 295 295 294 295 295 295 295 295 295 295 295 294 294 295 295 295 296 296 297 297 297 297 297 297 297 297 297 297 297 297 296 296 295 295 295 295 295 295 296 296 297 299 298 298 298 297 296 295
298 297 297 297 297 297 296 296 296 296 296 296 296 296 295 295 295 295 295 296 296 296 296 297 297 297 297 298 297 297 297 297 296 296 296 295 295 294 294 294 294 294 295 295 295 294 294 293 293 293 293 293 292 293 294 295 296 296 297 297 297 297 297 297 297 297 297 297 296 295 295 295 294 294 294 294 294 295 296 297 297 297 296 295 293
298 298 298 298 298 297 297 297 296 296 296 296 296 295 295 295 295 295 295 295 296 296 296 295 295 296 296 297 297 297 297 296 296 296 296 296 295 294 294 293 293 294 294 295 295 294 293 293 292 292 292 292 292 292 292 293 294 295 296 296 296 296 296 296 296 297 297 297 296 296 295 295 295 294 294 294 294 294 295 295 295 295 294 293 293
299 298 298 298 298 298 297 296 296 297 296 296 295 295 295 295 295 294 295 295 295 295 295 295 295 295 295 296 296 297 297 297 296 295 295 295 295 294 294 293 293 293 294 294 294 294 293 293 292 292 292 292 292 292 292 292 293 294 294 295 295 295 295 295 296 296 296 297 297 296 295 295 295 295 294 294 294 294 294 294 294 294 293 293 293
298 298 298 298 297 297 296 296 296 297 297 296 295 295 295 295 294 294 294 294 294 294 294 294 294 294 294 295 295 296 297 296 296 295 294 294 295 294 294 294 293 293 293 293 293 294 293 293 292 292 292 292 292 292 292 292 293 293 293 293 294 294 295 295 295 295 296 296 297 297 296 295 295 295 295 295 295 294 295 294 294 294 293 293 293
298 298 298 298 297 296 295 296 296 296 296 296 295 295 295 295 295 295 294 294 294 294 294 294 294 294 294 294 294 295 295 295 294 294 294 294 294 294 294 293 293 293 293 293 293 293 293 293 293 293 292 292 292 292 292 292 293 292 293 292 293 293 294 294 294 294 294 295 296 297 297 296 295 295 295 295 295 295 295 295 294 294 294 293 293
298 298 298 298 297 295 295 296 296 296 296 296 296 295 295 295 295 295 295 295 294 294 294 294 294 294 293 293 293 293 293 293 293 293 294 294 294 293 293 293 293 293 293 293 293 293 293 293 293 293 292 292 292 292 292 292 292 292 292 292 292 292 293 293 293 293 293 294 295 296 296 296 296 296 295 295 295 295 295 295 295 295 295 294 294
298 298 297 297 297 296 295 295 296 295 296 296 296 295 295 295 295 295 295 295 295 294 294 294 294 294 294 294 293 292 292 292 292 292 293 293 293 293 293 293 293 293 293 293 293 293 293 293 293 293 293 292 292 293 293 292 292 292 292 292 292 292 292 292 292 292 292 292 293 294 295 296 296 296 296 295 295 295 295 295 295 295 295 295 295
298 298 297 297 297 297 296 295 295 295 295 295 295 295 295 295 295 295 295 295 295 295 295 295 294 294 294 294 294 293 293 292 292 292 292 292 293 293 293 293 293 293 293 293 293 293 293 293 293 293 293 293 293 293 293 292 292 292 292 292 292 292 292 292 292 292 292 292 292 292 293 294 295 295 295 295 295 295 294 294 294 294 295 295 295
297 298 297 297 297 297 296 296 296 295 295 295 295 295 295 295 295 295 295 295 295 295 295 295 295 295 294 294 294 294 294 294 294 293 292 292 292 292 293 293 292 292 292 292 292 292 293 293 293 293 293 293 293 293 292 292 292 292 292 292 292 292 292 292 292 292 292 292 292 292 292 293 293 294 295 294 295 295 294 294 293 293 293 294 294
298 297 297 296 296 296 296 296 296 296 296 296 296 296 295 295 296 295 295 295 295 295 295 295 295 295 295 295 295 295 295 295 294 294 293 292 292 292 292 292 292 292 291 291 291 291 292 292 292 292 292 292 292 292 292 292 292 292 292 292 292 292 291 292 291 291 291 292 291 291 291 292 292 292 293 293 293 293 293 293 293 292 293 293 293
298 297 297 297 297 296 296 296 296 296 296 296 296 296 296 296 296 296 296 296 296 295 295 296 296 296 295 295 295 295 295 295 295 294 294 293 293 292 292 291 291 291 291 291 291 291 291 291 292 292 292 292 291 291 291 291 291 291 292 291 291 291 291 291 291 291 291 291 291 291 291 291 291 291 292 292 292 293 292 292 292 292 292 292 292
297 297 297 297 297 297 296 297 296 296 296 297 296 296 296 296 296 296 296 296 296 296 296 296 296 296 296 296 295 295 295 295 295 295 294 294 294 293 293 292 292 291 291 291 291 290 290 291 291 291 291 291 291 290 290 290 291 291 291 291 291 291 291 291 291 291 291 291 291 291 291 291 292 291 291 291 291 292 292 292 291 292 291 292 292
298 298 298 297 297 297 297 297 297 296 296 296 296 296 296 296 297 296 297 296 296 296 296 296 296 296 296 296 296 295 295 295 295 295 295 294 294 294 294 293 293 292 291 291 291 290 290 290 290 290 290 290 290 290 290 290 290 290 290 290 290 290 290 290 291 291 291 291 291 291 291 291 291 291 291 291 291 291 291 291 291 291 291 291 291
298 298 298 298 298 297 297 297 297 297 297 296 296 297 296 296 297 296 296 296 296 297 296 296 296 296 296 296 296 296 296 295 295 295 295 295 295 294 294 294 294 293 292 292 291 291 290 290 290 290 290 290 290 290 290 290 290 289 289 289 289 288 288 288 289 290 291 291 291 291 291 291 291 291 291 291 291 290 290 290 290 290 290 290 290
298 298 298 297 297 297 297 297 297 297 297 297 297 297 296 296 296 296 296 296 296 296 296 296 296 296 296 296 296 296 296 296 296 295 295 295 295 295 295 294 294 294 293 293 292 292 291 291 290 290 290 290 290 290 290 290 290 290 289 289 289 288 288 288 287 287 289 290 291 290 290 290 290 290 290 290 290 290 290 290 290 290 290 290 290
298 297 297 297 296 296 296 296 297 297 297 297 297 297 297 296 296 296 296 296 296 296 296 296 296 296 296 296 296 296 296 296 295 295 295 296 295 295 295 295 294 294 294 294 293 293 293 292 292 291 291 290 290 290 290 290 290 289 289 289 289 289 288 288 287 286 286 288 290 290 290 290 290 289 289 289 290 290 290 289 289 289 289 289 289
297 297 297 297 296 296 296 296 296 297 297 297 297 297 296 296 296 296 296 296 296 296 296 296 296 296 296 296 296 296 295 295 295 294 295 295 296 295 295 295 295 295 294 294 294 294 293 293 293 293 292 291 291 291 290 290 290 290 290 289 289 289 288 288 288 287 286 286 287 289 290 289 289 288 288 288 288 288 288 288 288 288 288 288 288
297 297 297 297 297 297 296 296 296 297 297 297 297 297 296 296 296 296 296 296 296 296 296 296 296 296 296 295 295 295 294 294 294 294 294 295 295 295 295 295 295 295 295 295 294 294 294 293 293 293 293 293 293 292 292 291 291 291 290 290 290 289 289 288 288 288 287 286 286 286 288 289 289 288 288 287 287 288 288 287 288 288 288 287 287
298 297 297 297 297 297 297 296 296 297 297 297 296 297 297 296 296 296 296 296 296 296 296 296 296 296 296 295 294 294 293 293 293 293 293 294 294 294 295 295 295 295 295 295 295 295 294 294 294 294 293 293 293 293 293 293 292 292 292 291 291 290 290 289 289 288 288 288 287 286 286 286 287 288 288 288 288 288 288 288 287 288 288 287 287
298 298 298 298 297 297 297 297 297 297 297 297 296 296 296 296 296 296 296 296 295 295 296 296 296 296 295 295 294 294 293 293 293 292 292 292 293 294 294 295 295 295 295 295 295 295 295 295 294 294 294 294 294 293 293 293 293 293 292 292 292 292 291 291 290 289 289 288 288 287 287 286 286 286 286 287 287 288 288 288 288 287 287 287 286
298 298 298 298 298 297 297 297 297 297 297 297 297 297 297 296 296 296 296 296 295 295 295 295 295 295 295 295 294 294 293 293 293 293 292 291 292 293 293 293 294 294 294 294 294 295 295 294 294 294 294 294 294 294 294 293 293 293 293 293 293 292 292 292 292 291 290 290 289 288 288 288 287 287 286 285 285 285 285 286 286 287 287 286 286
298 298 298 298 298 297 297 297 297 297 297 297 297 297 297 296 296 295 296 295 295 295 295 295 295 295 295 294 294 294 293 293 293 293 293 292 292 292 292 292 292 292 293 293 294 294 294 294 294 294 294 293 293 294 294 294 293 293 293 293 293 293 293 292 292 292 292 291 290 290 289 289 288 288 288 287 286 286 285 284 284 285 285 286 286
Wind_Speed
10 10 10 9 8 8 8 9 10 11 12 13 14 15 15 15 16 16 16 15 16 16 17 17 17 16 16 15 15 15 15 16 16 16 17 19 21 20 20 18 16 16 17 18 18 16 18 21 24 23 20 21 23 23 23 23 24 25 26 26 27 28 28 23 13 9 13 18 19 21 24 25 26 29 32 35 35 35 36 37 37 37 36 35 34
11 10 10 9 9 9 9 10 11 12 12 14 15 15 16 17 16 17 18 17 18 18 18 18 17 17 17 17 17 17 17 18 17 17 17 20 21 21 21 20 19 18 17 17 18 19 21 22 24 23 20 20 22 23 23 23 23 24 25 25 26 28 28 25 18 11 11 15 17 17 20 24 27 28 31 34 36 37 37 37 37 37 36 35 34
12 10 9 10 10 10 10 10 11 12 13 15 16 16 17 17 17 18 18 18 19 18 18 19 19 19 19 20 20 20 20 20 20 19 18 19 22 23 22 21 22 21 20 19 19 21 23 24 24 23 20 20 22 23 23 23 23 23 23 24 25 26 27 27 22 16 14 15 17 18 20 24 27 28 30 33 34 36 37 38 38 38 36 35 35
11 10 10 10 10 10 11 11 11 12 14 15 16 16 16 16 16 16 16 17 18 19 19 20 21 21 21 21 22 22 22 22 22 21 20 20 21 24 25 24 23 23 23 23 22 21 23 24 25 22 20 20 21 22 23 23 23 24 23 23 24 25 26 28 27 22 18 16 17 20 23 25 28 28 28 29 31 33 35 36 36 37 36 35 34
11 10 10 11 11 11 11 11 12 12 13 14 14 15 15 15 16 16 16 17 18 19 20 20 21 22 22 22 22 22 22 22 22 21 21 20 20 23 26 26 26 25 25 25 24 22 22 23 23 23 20 20 21 23 23 23 23 24 24 23 23 25 26 27 29 27 22 18 18 20 23 24 25 25 26 28 30 30 31 34 35 34 33 32 32
10 10 10 11 12 11 11 10 11 11 13 14 14 14 15 16 16 16 17 18 19 19 20 21 21 22 22 22 22 23 23 23 23 23 24 24 24 25 26 27 26 25 24 24 24 23 23 22 22 22 20 20 22 23 23 24 24 23 23 24 23 24 25 27 28 28 26 23 20 19 21 23 23 23 25 29 30 27 28 31 31 31 31 31 30
11 11 11 12 12 11 11 10 10 11 12 12 12 13 15 16 17 17 18 19 19 19 20 21 21 22 23 23 24 25 25 24 24 25 26 27 27 27 26 25 24 23 21 20 20 21 21 20 20 19 19 20 21 22 23 24 24 23 24 24 25 24 24 26 27 27 26 24 22 20 20 23 24 22 22 27 30 27 27 27 24 25 29 31 32
12 12 12 13 12 11 10 9 10 10 10 10 11 13 15 17 17 18 19 20 20 20 21 21 22 23 24 24 26 27 27 26 27 27 26 27 27 26 24 22 21 20 19 18 18 19 19 18 18 18 19 19 20 21 22 23 23 24 24 24 25 24 24 25 25 25 24 22 22 21 21 22 23 22 22 25 25 23 27 30 27 25 27 29 31
13 13 13 13 11 10 9 10 10 10 10 11 12 13 15 16 17 19 20 21 21 22 23 23 23 25 26 27 28 29 28 28 27 26 24 25 24 22 20 18 18 18 18 18 17 17 16 16 17 18 19 19 18 18 19 20 22 23 24 24 24 22 22 24 24 22 22 20 20 20 19 19 21 21 21 24 25 24 28 30 27 27 28 28 29
13 13 13 13 11 11 11 11 11 11 12 13 13 14 15 16 18 20 21 22 23 23 25 25 25 27 29 29 30 30 30 29 27 24 22 21 20 19 18 18 17 17 16 16 16 15 14 14 15 17 18 18 17 16 16 17 18 21 23 24 24 23 22 22 22 22 20 19 19 19 17 16 21 24 22 25 28 28 27 26 24 26 27 23 22
14 14 15 14 13 13 13 13 13 13 13 14 14 14 15 17 19 21 22 23 24 25 26 27 27 28 30 32 32 32 32 29 26 24 22 19 18 18 19 18 16 15 15 16 17 17 16 15 15 15 15 17 17 17 16 16 17 18 20 22 24 26 25 22 21 21 20 18 19 20 17 16 21 26 26 27 28 28 30 30 27 26 25 20 17
14 14 14 14 14 14 14 13 14 14 14 15 14 14 16 19 20 21 22 23 24 26 27 27 28 29 31 33 34 34 32 29 25 23 22 20 18 18 19 18 18 18 20 21 22 22 20 19 17 16 16 16 17 17 17 17 17 18 18 18 20 23 27 27 25 22 20 19 19 20 21 20 21 25 27 28 28 29 31 32 30 29 27 24 20
14 14 14 14 14 14 14 14 15 15 15 15 14 15 17 20 21 22 22 23 24 26 27 28 28 29 30 31 34 35 34 30 25 22 21 21 20 20 20 20 21 22 24 25 25 25 25 23 22 22 20 19 19 19 18 17 17 17 17 16 16 17 21 26 29 29 26 24 22 22 24 24 24 27 31 32 31 30 29 29 31 31 29 27 25
14 14 14 14 14 14 14 15 16 16 16 15 16 17 19 20 21 21 22 23 24 26 27 27 29 29 29 30 32 36 36 31 26 23 21 22 23 23 23 23 24 26 27 27 27 27 27 26 25 25 24 23 23 22 20 19 17 15 14 14 14 13 15 18 23 27 29 28 25 26 28 29 28 29 32 35 35 33 32 33 34 34 33 29 28
14 14 14 14 14 14 14 15 16 17 17 17 18 19 20 21 22 22 22 23 23 24 25 26 27 28 29 30 31 35 36 32 28 25 24 24 25 25 25 26 27 29 30 31 30 30 29 28 28 27 27 26 24 23 21 19 17 15 13 13 13 11 12 13 15 18 23 26 25 25 26 29 32 31 30 33 36 36 36 36 36 35 31 26 26
15 14 14 14 14 14 14 15 16 17 18 19 20 21 21 21 21 21 22 23 24 24 25 26 26 27 29 30 31 33 35 33 29 27 26 26 26 26 26 27 29 30 32 33 33 32 31 30 29 28 27 27 25 22 20 18 17 17 16 16 16 14 14 13 13 13 15 19 23 23 23 24 28 31 31 32 35 35 33 30 28 29 27 22 23
16 15 15 14 14 14 14 15 17 17 19 20 21 20 20 21 21 21 22 24 25 25 25 25 26 27 29 30 31 32 34 34 31 28 27 27 27 27 27 28 29 30 31 32 32 32 32 31 30 29 28 27 25 23 20 20 20 20 20 20 20 20 20 18 13 11 11 11 14 17 20 21 22 26 29 30 33 36 31 25 26 30 27 19 15
17 16 16 15 15 15 15 16 17 18 19 20 20 20 20 21 21 22 23 24 25 25 26 26 27 28 29 30 30 31 33 33 32 30 28 27 28 28 27 28 29 29 29 30 31 32 32 32 31 30 29 27 25 24 24 25 26 25 23 22 22 23 24 22 18 15 12 10 8 7 10 14 17 20 24 26 30 36 33 27 29 32 28 20 16
18 18 17 16 16 16 17 17 18 20 20 20 19 20 21 21 21 22 23 24 24 25 26 27 28 29 29 29 30 31 32 32 32 31 30 29 29 29 28 28 28 27 27 29 31 33 33 33 33 32 31 29 28 29 29 30 31 29 26 24 23 23 25 25 24 23 21 20 19 15 11 7 5 9 16 21 27 34 36 34 35 36 30 25 23
19 18 18 18 18 19 19 20 20 21 20 20 20 20 21 21 22 23 23 24 24 25 26 27 28 29 30 30 31 31 31 31 30 30 31 30 29 30 30 30 28 27 28 29 31 32 33 34 34 33 33 33 33 34 34 35 35 33 32 30 25 23 26 28 29 29 29 30 30 27 25 21 15 9 1 8 16 23 27 30 37 40 35 32 32
19 19 20 20 20 20 21 21 22 21 21 20 21 21 22 22 22 23 23 24 25 25 26 27 27 29 30 31 31 31 31 30 29 29 29 30 30 31 31 29 27 28 29 30 30 31 31 32 34 34 34 34 35 37 37 38 39 38 36 33 29 27 30 31 32 34 35 35 36 35 34 31 28 24 17 9 2 9 12 17 26 32 32 34 35
21 21 21 21 21 22 22 22 22 22 22 22 22 23 24 23 24 24 24 25 26 27 27 27 27 29 30 31 32 32 31 31 30 28 27 27 29 30 30 28 28 29 31 30 30 31 30 30 31 32 34 34 34 35 36 37 38 37 35 34 34 35 35 34 35 38 39 39 39 39 38 37 37 34 29 24 15 4 3 8 17 22 24 31 34
24 23 23 22 22 22 23 23 23 23 23 23 24 25 25 25 25 26 26 27 28 28 28 28 29 29 30 31 32 32 32 33 32 30 28 26 26 28 28 28 29 30 31 30 29 29 30 30 30 31 33 34 34 35 36 36 35 33 32 33 34 35 36 36 36 38 38 38 38 37 36 36 37 37 35 32 26 18 11 7 11 16 20 25 27
26 26 25 24 23 23 23 23 23 23 23 24 24 25 25 25 26 26 26 27 28 28 28 29 29 29 29 30 32 32 33 33 33 32 31 29 27 27 27 27 28 30 30 29 28 29 29 30 30 31 33 34 35 36 36 37 36 35 34 34 35 35 36 35 34 35 36 35 33 32 33 34 34 35 34 32 30 27 24 21 18 17 20 22 22
27 27 26 25 24 23 23 22 22 22 22 23 24 24 24 24 25 25 26 26 27 27 27 27 28 28 28 29 30 32 33 33 33 33 33 32 32 31 29 29 30 30 30 30 29 29 29 30 31 32 33 35 36 37 37 37 36 36 36 37 37 36 35 33 33 34 33 30 29 28 29 32 34 34 34 33 32 31 30 29 28 26 26 26 26
26 25 25 25 24 24 23 23 22 22 22 22 23 23 22 22 22 23 23 24 25 25 25 26 27 27 27 28 28 30 32 33 33 33 33 33 33 33 32 32 32 32 32 31 31 32 32 33 34 34 35 36 37 37 37 36 37 37 38 38 38 36 35 33 32 31 29 28 28 26 26 28 30 32 37 39 37 35 33 32 32 30 31 34 35
24 23 23 23 23 23 23 23 22 22 23 23 23 22 22 22 22 22 22 22 22 22 23 23 24 24 25 25 26 28 30 31 32 32 32 32 32 32 32 32 32 32 32 32 32 32 33 34 35 35 35 36 36 36 35 35 36 36 36 36 36 35 35 34 33 31 30 29 29 29 29 28 28 30 35 38 37 36 35 36 35 31 30 37 41
22 21 20 20 20 20 20 21 21 22 21 21 21 21 21 21 21 21 20 20 20 19 19 19 20 20 21 22 23 25 27 28 29 29 29 30 31 31 31 30 30 30 31 31 31 32 34 35 36 36 36 36 36 36 35 34 34 33 32 32 32 31 32 32 33 33 32 31 31 32 33 33 32 32 34 35 36 35 34 37 38 33 32 38 39
19 18 17 17 16 16 17 17 18 18 18 18 18 18 18 19 19 19 19 19 19 19 18 18 17 17 18 19 20 22 23 24 25 24 24 26 28 29 29 28 28 28 29 30 31 34 35 36 36 36 36 36 35 35 34 34 34 33 32 31 30 30 29 29 29 29 29 30 31 31 32 33 33 33 33 34 34 33 33 35 37 36 38 42 39
17 16 14 13 13 12 12 12 12 13 14 14 15 16 16 17 18 19 20 20 20 20 19 18 18 17 16 16 17 18 19 20 21 21 22 23 24 26 27 27 27 26 27 29 33 35 35 35 35 34 34 34 33 33 33 33 32 32 32 31 30 30 29 28 27 25 24 26 28 29 30 31 31 31 31 31 31 32 33 35 36 38 38 38 36
15 13 12 11 10 10 10 9 9 10 11 13 14 15 16 17 17 18 19 19 19 19 19 19 19 18 17 16 15 15 16 17 18 20 20 21 22 24 25 27 28 28 27 29 33 35 34 33 33 32 32 32 32 32 32 32 32 30 30 29 29 29 29 28 27 25 23 23 24 26 28 29 29 29 29 29 29 30 31 32 34 34 34 32 31
13 12 10 9 8 8 8 8 9 10 11 13 15 16 16 17 17 17 17 17 17 17 18 18 19 19 18 17 16 15 15 15 17 19 20 20 20 21 23 26 28 29 29 31 33 33 32 31 30 30 31 30 30 31 31 31 31 31 30 29 28 28 27 26 25 25 24 22 22 23 24 25 26 27 27 27 28 28 29 30 30 30 30 30 29
12 11 10 8 7 8 10 11 12 12 12 13 14 14 15 15 15 15 15 15 16 16 17 18 18 18 19 19 18 17 16 15 16 18 20 20 19 19 20 23 26 28 30 33 33 30 29 29 29 29 29 28 27 28 30 30 30 30 30 30 29 28 27 25 24 24 24 22 20 20 21 22 22 23 24 25 25 25 26 27 27 28 28 27 26
12 10 9 8 9 10 12 13 14 13 13 13 13 13 13 13 13 14 14 14 15 16 17 18 18 18 18 18 18 17 16 16 17 17 18 19 19 19 20 22 25 28 29 30 29 27 27 28 28 28 28 27 26 26 27 28 29 29 29 29 29 28 27 26 26 25 24 22 20 18 18 19 20 20 20 21 21 22 23 24 24 25 26 25 24
11 9 9 9 10 12 13 13 13 12 12 12 12 12 12 12 11 12 12 12 13 13 14 16 17 17 17 18 17 17 16 16 17 17 18 18 18 18 21 24 26 28 28 28 27 25 24 24 25 26 26 27 28 27 26 26 26 26 27 27 28 28 27 27 27 26 24 22 20 17 16 16 17 17 17 17 18 18 19 20 20 21 22 22 22
11 9 10 10 10 11 12 11 11 10 10 10 10 10 10 10 10 10 11 11 11 12 12 13 14 14 15 16 17 17 18 18 18 18 18 18 18 20 22 23 24 24 25 26 25 24 22 21 22 23 24 25 27 27 27 26 25 24 24 25 25 26 27 27 27 26 25 24 22 19 16 15 15 15 15 15 16 16 16 16 16 16 17 18 18
11 9 9 10 10 10 10 10 9 9 9 9 9 8 8 8 9 9 9 10 10 11 11 11 12 12 13 14 15 16 17 18 18 19 19 18 18 19 20 21 20 21 22 22 22 22 22 20 19 20 21 22 23 25 25 25 25 24 23 23 23 23 24 24 25 25 25 24 23 21 19 17 15 13 13 14 15 15 15 14 14 13 12 12 13
11 9 9 10 10 10 10 9 8 8 8 7 7 6 6 6 6 7 7 8 8 9 9 10 10 10 11 12 12 13 15 17 19 20 20 19 18 18 18 18 18 19 19 19 19 19 20 20 19 19 19 20 21 22 23 23 23 22 22 22 22 22 22 22 23 23 24 24 23 22 20 19 17 15 13 13 14 14 13 12 12 12 12 11 11
11 10 10 11 11 10 10 9 8 7 7 6 5 4 4 3 3 4 4 5 6 7 7 8 9 9 9 9 10 11 13 15 17 18 18 18 18 17 17 17 17 17 17 18 17 17 17 18 18 18 18 19 19 20 21 21 20 20 20 20 21 22 22 22 22 22 22 22 21 20 20 20 19 18 16 14 13 13 12 12 12 12 14 15 15
11 10 10 10 10 10 9 8 7 6 6 5 4 3 3 2 1 1 2 3 3 4 5 6 6 7 8 8 8 9 11 12 13 14 15 16 16 17 16 16 16 16 16 16 16 16 16 16 16 16 16 17 17 18 19 19 18 18 18 18 19 20 21 21 21 20 19 19 19 18 18 18 18 17 17 16 14 12 12 13 13 13 13 14 15
11 11 11 10 9 9 8 7 7 6 5 5 4 3 3 2 2 2 2 3 3 3 4 5 5 6 7 7 7 7 8 9 10 10 11 12 14 14 15 15 15 15 14 14 15 15 14 14 14 14 15 15 16 16 17 17 17 17 17 17 17 18 18 19 19 19 18 17 16 17 17 17 16 16 16 15 14 13 13 13 13 12 12 12 12
11 11 11 11 11 10 9 8 8 7 6 6 6 5 4 4 4 5 5 5 5 6 6 7 7 7 7 7 7 7 7 6 7 7 8 9 10 11 13 13 13 14 14 14 14 14 13 13 13 13 13 14 14 15 15 16 16 16 16 15 16 16 16 16 16 17 16 15 14 14 15 15 15 15 15 14 13 13 12 12 11 11 10 10 9
11 11 11 11 12 12 12 10 10 9 9 8 8 7 7 6 7 7 8 8 8 8 9 9 9 8 8 8 8 8 8 7 6 6 6 6 7 8 9 10 11 12 12 13 13 14 13 13 12 12 11 12 12 13 14 15 15 15 15 15 15 15 16 15 15 14 14 14 13 13 12 12 12 13 14 13 13 12 12 11 10 9 9 8 8
12 11 11 11 12 12 12 12 11 11 10 9 9 9 8 9 9 9 10 10 10 10 10 10 9 8 8 8 9 9 9 9 8 8 6 5 5 5 5 7 8 9 10 11 12 13 13 13 12 12 11 10 10 11 12 12 13 14 14 15 15 15 15 16 15 14 12 11 11 11 11 11 11 11 12 12 11 11 11 11 11 10 9 8 8
14 13 12 12 12 11 12 12 12 11 11 10 10 9 9 9 10 10 11 11 11 11 11 9 8 7 7 7 8 9 9 8 8 8 7 5 4 4 4 4 5 6 7 8 9 10 11 12 12 12 11 11 10 10 10 11 11 12 13 14 14 14 14 14 14 14 12 10 9 9 9 9 9 9 10 10 9 9 9 9 9 9 9 8 8
16 15 15 14 13 12 12 12 11 11 11 11 10 10 9 10 10 10 11 11 11 11 10 9 7 7 6 6 7 8 8 7 7 7 6 4 3 3 3 4 3 4 4 5 6 6 7 8 9 10 10 10 10 10 10 10 10 11 11 13 13 14 13 12 12 13 13 11 9 8 7 7 8 8 7 7 7 7 7 7 7 7 7 7 7
18 18 18 17 15 14 14 13 12 11 11 11 11 11 11 11 10 10 10 10 10 10 9 8 7 7 7 6 7 7 7 7 6 6 5 4 4 4 4 4 4 3 3 3 4 5 5 6 7 7 8 8 8 8 9 9 9 9 10 11 12 12 12 12 11 11 12 12 10 8 6 5 5 6 6 6 6 6 6 6 6 7 7 7 7
17 18 19 19 18 17 16 15 15 14 13 13 13 12 12 11 11 10 9 9 9 9 8 8 8 8 8 7 7 6 6 6 6 6 5 5 5 6 6 6 5 5 4 4 4 4 5 6 6 7 7 7 6 6 6 7 7 7 8 9 9 10 11 11 11 10 10 11 11 10 8 6 5 4 4 4 4 4 5 5 5 6 6 6 7
13 15 17 19 20 20 19 17 17 17 16 14 14 14 13 12 11 11 10 10 9 9 8 8 9 9 9 8 7 6 5 5 6 6 6 5 5 6 7 7 7 7 6 5 5 6 6 6 7 7 8 8 7 7 6 5 5 5 6 6 7 8 9 9 10 10 9 9 9 9 9 8 7 6 5 5 5 5 5 5 5 6 6 6 6
12 12 13 16 19 20 21 19 18 17 17 16 16 15 14 14 13 13 12 12 11 10 10 10 10 11 11 10 9 8 6 5 6 6 6 5 4 5 6 7 8 8 8 8 7 7 7 6 7 7 8 9 9 9 8 7 6 5 5 5 5 6 7 7 7 8 8 8 8 8 8 8 7 7 7 6 6 6 6 7 7 6 6 6 6
12 12 13 14 16 19 21 22 21 19 18 17 17 16 16 16 16 15 14 14 13 13 12 12 12 13 13 12 11 10 9 8 7 7 7 6 5 5 5 5 6 6 7 8 8 8 7 7 7 8 8 7 8 9 9 9 9 8 8 7 6 6 6 6 6 7 7 7 7 7 7 7 7 7 7 7 7 7 7 7 7 7 6 7 7
Wind_Direction
94 91 92 92 85 72 54 37 27 17 9 3 360 1 2 1 359 358 357 355 351 348 346 345 343 341 341 340 337 333 329 323 319 319 318 313 311 312 314 316 313 308 308 305 299 299 303 300 294 292 296 292 286 285 285 285 279 270 265 255 243 237 231 224 224 230 224 223 224 225 225 222 219 220 220 220 222 222 222 223 223 221 220 219 217
97 97 96 88 73 60 46 33 24 15 10 7 9 14 16 14 12 11 10 6 3 359 354 352 353 352 349 345 341 337 333 327 323 323 322 316 311 310 309 311 313 312 311 307 304 303 302 298 292 290 294 296 291 286 284 284 280 271 265 257 244 236 231 224 220 222 224 224 222 221 221 218 219 222 220 218 220 219 219 220 221 222 220 219 218
102 101 94 79 66 55 44 35 27 22 20 20 23 27 26 22 18 17 15 11 10 9 4 4 6 3 359 355 351 346 341 336 332 328 326 321 316 312 309 308 310 312 311 308 305 302 298 296 294 290 291 294 292 287 285 284 281 276 270 261 249 240 233 226 222 218 220 227 222 214 213 215 218 220 220 220 219 218 218 218 218 220 220 220 220
102 95 84 72 61 53 46 41 36 33 34 33 31 29 26 23 20 17 16 14 14 13 11 11 12 9 7 4 1 358 353 348 343 337 332 325 318 313 311 307 306 305 305 303 302 301 297 295 297 294 289 289 290 290 290 286 282 276 270 263 252 244 236 228 224 221 220 226 225 216 214 215 218 220 220 220 221 220 219 217 216 217 218 218 220
98 87 77 68 60 55 52 48 43 40 41 39 34 29 25 21 17 15 17 19 18 16 15 14 13 12 10 6 4 2 359 354 351 347 340 331 321 315 311 308 304 300 298 297 299 301 298 293 294 295 293 291 292 293 292 288 284 275 267 262 254 245 238 230 225 223 220 222 225 220 216 216 217 219 217 216 218 217 215 215 215 214 214 215 219
94 85 76 69 65 62 59 54 49 45 43 40 35 30 25 19 16 16 20 24 22 19 19 18 14 13 12 10 8 5 2 359 356 350 342 334 327 320 315 311 307 303 299 297 299 302 301 295 292 295 299 298 294 293 292 289 284 276 269 265 261 251 240 230 224 221 220 223 226 220 213 212 214 215 214 214 214 207 201 206 209 207 208 210 213
94 87 82 78 73 69 64 58 54 49 44 41 35 31 28 22 21 24 27 28 27 23 21 21 19 19 17 15 13 9 6 3 358 350 343 338 333 329 324 318 315 313 310 308 308 309 306 297 293 301 306 302 297 293 290 288 284 280 275 272 269 259 242 229 222 217 216 220 223 220 213 212 213 212 212 212 212 205 193 192 194 196 202 206 205
96 90 87 82 75 70 65 59 56 51 46 43 38 36 34 28 29 34 35 34 32 28 25 23 23 24 22 19 18 14 11 6 360 352 348 344 340 339 337 332 328 328 329 330 327 323 317 304 299 307 311 306 303 299 294 291 287 284 280 276 271 260 242 230 222 216 213 214 218 219 213 209 209 208 206 201 199 199 194 189 188 189 193 198 200
98 91 85 80 73 69 66 62 58 52 47 45 41 41 39 35 37 40 40 38 37 33 31 30 27 26 24 23 21 18 14 9 3 358 355 350 347 347 349 349 346 344 344 343 338 333 329 320 313 316 318 315 312 308 301 297 293 287 281 277 274 263 245 232 225 219 215 213 216 215 208 204 203 199 195 190 190 197 196 190 188 189 187 187 194
96 88 81 77 74 72 69 64 59 54 49 46 43 44 45 41 42 42 40 40 38 36 36 34 31 28 27 26 23 19 16 11 6 5 2 359 358 1 5 5 2 357 351 347 347 345 339 332 326 321 321 323 324 321 315 308 302 294 287 280 274 265 252 238 231 225 218 214 215 211 204 203 202 197 192 191 194 198 196 188 184 184 180 173 178
93 85 80 78 75 73 69 65 60 55 51 48 46 48 49 46 44 41 39 39 39 39 38 35 33 31 31 29 26 22 18 13 10 10 9 8 10 14 15 13 10 8 5 3 2 358 349 342 338 333 331 334 335 333 329 323 316 309 301 291 280 268 256 245 239 231 223 219 217 213 209 208 205 202 199 195 194 195 193 190 185 179 173 166 165
92 86 80 76 72 69 67 63 60 57 53 51 49 49 51 50 45 40 38 37 39 40 38 35 34 33 32 30 28 25 21 17 15 16 17 20 24 25 24 22 21 23 24 23 20 16 10 4 359 358 356 350 343 337 331 325 320 317 312 304 294 279 263 253 247 239 231 226 221 217 217 216 210 205 201 198 195 193 192 190 186 181 178 179 175
94 87 78 72 68 65 64 63 61 58 55 53 51 50 51 50 46 42 40 39 40 40 38 35 34 33 32 30 28 26 24 22 22 24 27 30 34 35 33 31 30 31 31 30 29 28 25 20 17 15 11 4 358 351 342 334 328 324 320 316 310 299 282 267 256 249 242 234 228 224 221 220 217 211 207 204 197 190 187 188 188 187 184 185 182
94 86 77 70 67 64 64 64 63 62 60 57 55 54 53 51 49 46 44 43 41 39 38 36 34 33 32 31 30 27 26 26 28 31 36 39 41 41 39 37 37 38 38 35 34 33 31 27 23 19 14 11 7 0 355 351 345 339 336 334 331 324 312 294 272 258 249 241 237 234 229 227 226 222 215 208 200 194 191 190 190 192 190 188 184
92 86 78 70 67 65 65 67 67 66 64 61 59 59 59 57 54 50 47 47 44 40 39 37 35 34 33 33 33 31 28 29 31 35 40 44 44 43 42 41 40 42 43 41 38 36 33 31 27 21 15 13 9 4 1 0 0 2 3 2 359 349 335 323 305 282 265 254 248 245 240 236 233 230 223 213 206 204 201 197 194 192 185 176 169
90 85 77 69 67 67 68 70 70 69 67 65 64 64 63 61 58 54 51 51 49 46 44 41 38 37 35 35 35 33 31 31 33 35 40 45 44 42 41 42 42 42 43 43 42 39 35 32 29 25 20 17 14 10 8 12 18 21 21 20 17 11 2 350 334 317 295 274 261 256 253 248 241 235 230 221 213 207 201 195 189 179 167 158 155
88 83 76 72 72 72 73 74 74 73 71 69 69 68 67 65 63 60 57 55 53 50 48 45 43 41 40 38 36 35 34 33 34 36 39 43 44 41 39 42 43 42 42 44 44 44 42 39 36 34 30 25 22 21 24 30 33 32 29 27 24 19 14 10 2 352 338 310 281 265 258 257 250 239 234 227 214 204 195 184 175 167 162 161 159
89 85 80 80 80 79 78 79 78 78 77 76 76 75 72 70 67 65 63 59 57 54 52 50 47 45 44 41 38 37 36 35 36 37 39 43 46 44 40 40 41 40 40 42 44 45 47 47 46 44 41 36 34 36 39 42 43 41 37 34 32 28 23 21 23 23 19 10 350 309 274 266 256 241 235 229 217 207 199 187 176 170 169 171 163
91 89 87 86 86 84 84 83 82 83 83 83 82 79 76 75 72 70 68 64 60 57 54 51 49 46 46 44 41 40 38 37 37 38 40 45 48 48 46 42 38 36 36 39 42 43 45 49 51 53 52 49 48 48 48 50 52 51 48 45 40 35 35 37 39 39 40 39 35 33 29 5 304 250 235 227 217 211 207 199 188 180 177 174 161
95 94 93 91 90 88 87 86 86 88 88 87 85 82 80 78 74 71 69 66 63 58 54 51 48 46 45 45 44 41 39 40 40 40 42 45 49 52 52 47 41 37 37 38 40 41 42 45 49 54 57 57 57 57 57 58 59 57 55 52 45 41 47 51 52 51 50 47 44 44 45 43 40 37 15 216 210 208 207 203 196 189 183 176 167
100 98 95 92 92 90 90 90 90 90 89 87 85 83 80 78 76 73 69 66 63 59 54 51 48 46 45 45 45 43 41 41 41 41 43 45 49 53 53 50 46 45 42 40 40 40 40 42 46 52 57 60 60 61 61 62 62 61 58 57 54 54 56 56 56 57 56 52 49 46 44 45 44 43 43 46 143 209 215 206 198 193 187 179 174
101 98 95 93 92 92 92 92 91 90 89 87 85 82 79 78 76 73 70 66 63 59 55 52 49 48 47 46 46 45 43 43 43 43 44 45 49 53 53 52 52 51 48 43 41 41 42 43 46 51 56 59 59 59 60 61 63 62 60 60 60 59 58 56 56 57 57 54 52 47 44 44 43 42 41 40 43 55 215 204 196 197 194 186 181
100 97 96 94 93 92 91 90 90 90 88 87 84 81 79 77 74 71 68 65 62 57 54 51 49 48 46 45 45 45 45 45 46 46 46 46 48 52 53 53 54 54 51 45 42 45 47 47 50 55 58 58 57 56 56 58 60 61 61 61 60 58 57 55 55 55 54 53 52 48 44 44 45 44 43 41 43 54 71 113 164 179 180 179 179
98 95 93 93 92 92 91 90 90 89 87 87 85 82 79 76 72 68 66 64 60 56 53 51 49 47 44 43 43 44 45 46 47 48 49 50 51 52 53 54 55 55 53 48 47 50 51 51 54 57 59 58 58 58 57 56 57 58 58 58 57 56 55 53 52 52 51 49 48 46 44 44 46 47 48 49 50 57 68 81 101 126 142 150 155
99 96 93 92 91 92 93 92 91 89 87 85 83 80 76 73 70 67 64 63 60 56 53 51 50 48 45 43 42 43 45 47 47 49 51 52 54 55 55 56 57 57 55 52 51 53 55 56 58 58 58 58 58 57 56 54 55 56 55 55 54 53 52 51 51 51 48 44 43 42 42 45 48 49 53 59 62 62 65 72 81 94 111 120 123
102 99 96 94 93 92 92 91 90 88 86 83 80 76 73 71 69 66 64 62 59 57 54 52 51 49 47 45 44 44 46 47 47 47 49 50 52 54 55 57 58 59 58 56 55 56 57 58 58 57 57 57 57 55 54 54 55 55 55 54 54 53 52 51 51 50 48 45 43 41 42 48 52 53 55 59 61 62 64 68 71 76 91 100 99
107 103 100 98 97 95 94 92 90 87 84 81 79 75 72 70 68 65 63 61 60 58 55 52 50 49 47 47 47 47 47 46 46 45 45 46 48 49 51 54 55 56 56 55 54 55 55 56 56 56 56 56 56 54 53 53 54 54 54 55 55 55 55 55 56 55 53 51 50 48 49 55 56 55 56 57 57 59 64 70 70 67 77 88 87
112 108 105 103 100 97 95 93 90 87 84 80 77 73 69 67 65 62 60 60 59 58 55 53 50 48 47 47 48 48 47 46 44 43 42 42 44 45 47 49 51 53 54 53 54 54 54 54 53 52 51 51 50 49 49 49 51 52 53 54 54 56 57 57 58 59 57 56 57 54 54 56 56 56 58 58 56 58 64 69 71 70 73 78 78
118 114 111 108 104 99 95 93 90 88 85 81 77 73 68 66 65 64 63 62 61 59 58 57 55 52 50 48 47 46 45 44 44 43 42 43 44 44 46 47 50 52 54 55 56 55 53 51 49 46 45 44 43 43 43 44 46 48 49 51 52 53 55 56 58 60 58 57 58 57 57 58 57 57 60 59 58 62 66 69 71 72 73 73 72
123 120 115 109 104 99 95 94 93 92 88 83 80 77 74 72 70 69 67 66 64 62 61 59 57 55 53 52 50 48 47 46 45 43 43 46 48 48 48 49 51 53 55 57 57 54 51 49 46 44 44 43 41 40 40 40 42 43 45 47 49 50 52 54 56 59 61 61 61 60 60 61 60 61 63 63 62 65 68 70 72 74 74 75 74
128 124 115 106 100 95 92 98 107 104 94 89 88 87 84 81 76 73 72 70 67 65 62 60 58 56 54 53 55 56 55 52 48 45 44 46 49 50 50 50 51 53 55 57 57 54 50 48 46 45 45 44 42 42 41 41 41 41 41 42 43 44 48 51 52 55 61 66 68 66 64 65 66 66 67 68 69 70 70 72 74 76 77 79 80
129 122 114 106 99 91 90 103 117 117 106 97 96 95 93 89 84 79 77 74 71 67 64 62 60 57 56 55 56 58 57 53 49 48 46 46 50 51 50 49 51 52 55 57 57 54 50 48 46 44 44 44 43 43 43 43 43 42 41 41 40 40 42 46 49 52 56 64 70 72 70 70 71 73 74 74 75 75 75 77 79 81 81 82 83
130 122 115 111 105 99 102 111 119 119 112 105 102 100 97 93 89 84 81 78 74 70 65 61 59 58 57 57 56 56 56 53 51 50 49 48 51 53 51 50 50 51 53 55 56 54 51 49 46 43 42 43 45 46 46 45 45 46 45 44 43 42 42 44 45 49 54 60 68 75 75 73 73 75 77 78 79 80 82 83 86 88 88 87 88
133 124 118 121 116 107 109 117 121 118 113 108 105 101 96 92 89 86 82 77 73 68 63 58 56 55 56 57 57 56 55 54 52 52 52 53 55 57 56 55 53 51 51 53 54 53 52 50 46 43 43 45 48 50 49 48 47 47 47 47 46 46 46 46 45 46 50 55 63 73 79 77 75 75 77 79 80 83 86 90 92 94 95 96 97
140 130 128 131 123 113 114 120 122 119 115 111 106 102 97 93 88 81 75 70 66 63 59 55 52 52 53 54 54 53 53 52 52 53 56 58 59 58 57 55 53 51 50 49 49 50 51 50 47 45 46 48 49 49 49 48 47 47 47 48 49 50 50 50 48 47 48 50 55 64 75 80 81 80 79 81 83 84 87 92 96 99 103 106 107
147 139 138 139 132 122 120 123 123 121 118 112 107 102 96 90 84 75 69 66 63 60 58 56 54 55 56 56 55 54 53 53 54 54 55 55 54 53 53 53 52 51 49 47 46 46 48 50 50 48 48 49 47 46 46 45 46 48 49 49 50 51 51 51 51 51 50 50 51 54 61 72 81 86 87 87 88 88 89 93 98 103 110 114 116
155 148 142 143 143 137 132 131 128 126 123 117 111 105 95 86 79 71 67 64 59 57 57 57 57 57 57 57 58 57 56 56 56 56 55 53 49 49 51 51 50 49 48 47 45 44 45 48 50 49 47 47 46 44 42 42 43 47 50 51 51 51 51 51 52 52 52 52 52 53 54 58 66 78 89 94 94 90 88 89 93 99 108 119 124
157 152 143 141 144 147 147 145 140 138 135 131 124 115 101 87 77 70 66 60 54 51 51 50 49 49 50 52 54 55 55 55 55 54 54 52 49 47 48 48 48 47 46 45 45 45 46 48 50 51 49 47 45 44 41 40 40 42 47 50 51 51 51 51 51 52 52 52 53 54 55 56 56 61 73 86 92 91 85 82 84 88 92 100 111
162 159 152 147 147 151 154 156 155 154 152 148 143 139 124 99 79 71 63 52 45 42 40 38 38 37 36 39 42 44 46 48 49 50 50 51 50 48 47 47 48 48 46 44 44 44 45 47 49 50 50 47 45 44 42 41 41 42 45 49 50 50 50 49 47 49 51 52 53 55 58 59 59 58 63 71 79 83 81 78 80 85 88 90 93
171 172 168 163 161 161 163 165 166 168 168 167 169 171 163 146 110 73 44 29 25 22 17 17 18 18 16 17 21 27 33 39 43 45 47 48 48 48 46 45 46 45 44 43 42 43 44 44 45 46 46 45 45 45 45 44 45 45 47 49 51 51 50 49 46 45 46 49 52 55 58 60 61 61 62 63 65 71 78 79 80 84 90 93 93
180 183 186 187 185 184 186 189 188 188 187 190 200 209 213 221 245 273 298 318 322 320 321 326 334 343 350 353 356 2 13 24 31 36 39 42 45 46 45 44 43 43 42 40 40 41 43 44 43 44 44 44 44 46 47 47 46 45 45 46 47 47 48 49 48 45 44 45 49 52 54 56 58 60 62 62 64 68 72 75 76 79 84 88 91
196 198 202 207 209 211 215 214 213 216 218 220 225 233 240 251 267 278 284 288 291 292 294 298 301 308 318 326 331 336 342 355 11 22 28 33 38 42 44 44 42 42 41 39 38 40 40 42 43 44 45 46 46 46 47 47 45 43 41 41 41 41 42 44 45 46 45 45 46 49 51 51 52 54 57 58 63 68 71 72 74 75 75 76 76
211 215 219 220 221 225 229 229 229 232 234 236 240 246 252 259 269 277 281 283 285 286 288 289 290 292 297 302 308 315 322 328 339 352 5 16 24 32 39 41 41 42 42 41 41 41 40 39 39 39 42 44 44 43 44 43 42 41 40 39 40 41 40 39 41 44 46 45 45 47 50 48 47 48 50 50 53 59 65 68 69 68 68 66 62
222 224 224 221 223 227 229 230 231 232 234 240 247 252 257 262 266 271 276 279 283 285 284 282 283 285 290 293 295 301 309 315 320 324 332 345 360 10 23 33 37 39 41 41 43 44 43 41 40 38 39 40 38 35 36 36 35 35 36 37 38 41 41 40 40 40 41 43 46 48 49 47 46 47 49 49 49 52 56 59 59 58 58 55 49
223 225 225 223 225 225 223 225 229 232 234 240 246 250 256 260 262 265 269 273 279 284 281 273 270 274 282 290 294 297 302 307 312 317 318 316 322 339 352 10 25 32 35 36 37 41 43 44 42 41 39 38 35 32 31 31 31 32 33 33 34 37 39 40 40 39 36 38 45 49 48 47 48 50 52 52 49 47 50 52 50 48 47 42 37
223 223 226 229 232 232 228 227 230 231 231 236 242 248 255 259 261 265 268 269 276 282 277 263 255 261 274 289 298 303 306 308 314 321 319 299 275 287 314 334 354 10 17 18 19 23 29 34 37 38 38 37 36 34 32 32 33 34 33 32 32 33 34 36 37 37 36 36 41 46 46 47 51 51 50 49 47 44 44 44 40 36 33 27 21
227 227 228 230 232 233 233 233 231 230 230 234 240 247 254 260 264 269 271 270 273 277 271 255 245 251 267 282 295 303 309 310 313 318 316 296 270 268 281 298 315 329 339 346 349 351 356 3 10 18 24 27 30 31 30 31 31 31 31 31 31 31 32 33 32 32 33 35 37 41 42 44 47 46 42 40 39 35 32 30 26 20 18 13 5
226 228 230 229 228 229 232 234 234 235 237 240 243 247 254 260 262 264 263 262 265 270 267 254 246 249 258 269 281 294 304 309 309 308 302 290 279 275 275 279 286 292 297 302 305 312 324 331 335 340 346 353 2 10 17 21 23 23 24 26 27 28 31 32 31 30 29 30 32 35 37 36 34 27 18 16 13 9 8 9 6 3 1 356 351
225 229 232 231 228 228 230 233 236 241 245 245 245 249 255 259 257 253 252 254 259 265 265 257 250 250 253 259 269 280 292 304 311 311 304 294 285 282 282 283 283 283 283 285 284 287 295 303 310 316 320 320 322 327 334 344 354 0 6 12 16 19 23 26 29 30 29 26 25 27 29 30 29 22 9 357 346 338 336 333 333 337 340 338 337
228 232 236 234 231 230 231 233 237 244 249 249 249 252 257 256 251 246 247 250 254 257 257 254 251 250 252 257 264 269 274 285 300 306 305 304 302 298 295 293 291 290 289 287 282 279 282 289 299 307 308 306 304 302 302 303 307 313 322 335 349 358 5 9 13 18 22 23 22 20 18 19 19 17 11 3 352 340 331 324 321 321 321 319 319
229 234 236 236 235 234 234 235 237 243 248 250 251 253 254 253 248 245 245 248 251 254 255 254 252 252 254 258 262 264 264 267 277 286 290 291 294 301 305 303 302 302 301 297 291 284 280 282 294 305 309 307 302 298 296 292 290 289 292 298 306 318 332 343 349 354 359 3 7 9 8 7 5 3 0 357 353 347 340 333 327 321 314 311 311